Flag for Germany Weather past 2 weeks in Niederkassel, North Rhine-Westphalia, Germany

Now
41 °F

Low clouds.


Feels Like: 33 °F
Forecast: 38 / 47 °F
Wind: 14 mph from Southwest

Location: Bonn-Hangelar

Current Time: Mar 1, 2015 at 5:46:00 AM

Latest Report: Mar 1, 2015 at 5:00 AM


Visibility: 12 mi

Pressure: 29.60 "Hg

Humidity: 90%

Dew point: 38 °F

Location of NiederkasselLocation

Historic Weather in Niederkassel — Graph

°F

Niederkassel temperature yesterday

Maximum temperature yesterday: 45 °F (at 4:00 PM)
Minimum temperature yesterday: 31 °F (at 1:00 AM)
Average temperature yesterday: 38 °F

Past Weeks' High & Low Weather Summary

 TemperatureHumidityPressure
High48 °F (Feb 14, 2:00 PM)100% (Feb 17, 4:00 AM)30.78 "Hg (Feb 17, 4:00 AM)
Low29 °F (Feb 17, 2:00 AM)54% (Feb 28, 5:00 PM)29.38 "Hg (Feb 21, 3:00 AM)
Average38 °F86%29.98 "Hg
* Reported Feb 14 4:00 AM — Mar 1 4:00 AM, Niederkassel, Weather by CustomWeather, © 2015

Note: Actual official high and low records may vary slightly from our data, if they occured in-between our weather recording intervals... More about our weather records

Advertising

Niederkassel weather history for previous 24 hours

 ConditionsComfort  
Time TempWeatherWind HumidityBarometerVisibility
4:00 AM
Sun, Mar 1
40 °FLight rain. Low clouds.13 mph88%29.61 "Hg5 mi
3:00 AM40 °FLight rain. Low clouds.13 mph80%29.66 "Hg18 mi
2:00 AM42 °FLight rain. Overcast.13 mph70%29.69 "Hg34 mi
1:00 AM42 °FOvercast.12 mph63%29.75 "Hg34 mi
12:00 AM42 °FOvercast.15 mph59%29.75 "Hg34 mi
11:00 PM
Sat, Feb 28
42 °FOvercast.14 mph59%29.80 "Hg31 mi
10:00 PM41 °FOvercast.12 mph57%29.83 "Hg34 mi
9:00 PM41 °FPassing clouds.12 mph59%29.88 "Hg25 mi
8:00 PMN/APassing clouds.8 mphN/AN/A3 mi
7:00 PM41 °FPassing clouds.8 mph59%29.93 "Hg25 mi
6:00 PM43 °FScattered clouds.7 mph55%29.94 "Hg25 mi
5:00 PM44 °FPassing clouds.10 mph54%29.96 "Hg25 mi
4:00 PM45 °FPassing clouds.9 mph56%29.99 "Hg25 mi
3:00 PM45 °FPassing clouds.8 mph57%30.02 "Hg25 mi
2:00 PM44 °FOvercast.8 mph62%30.05 "Hg22 mi
1:00 PM42 °FOvercast.9 mph67%30.08 "Hg22 mi
12:00 PM40 °FOvercast.7 mph71%30.09 "Hg19 mi
11:00 AM38 °FOvercast.8 mph73%30.11 "Hg22 mi
10:00 AM37 °FPartly sunny.7 mph77%30.14 "Hg16 mi
9:00 AM34 °FScattered clouds.7 mph83%30.15 "Hg16 mi
8:00 AM33 °FPartly sunny.7 mph84%30.15 "Hg16 mi
7:00 AM33 °FClear.5 mph85%30.15 "Hg16 mi
6:00 AM33 °FClear.6 mph87%30.15 "Hg16 mi
5:00 AM32 °FClear.6 mph88%30.17 "Hg7 mi
Weather by CustomWeather, © 2015

See weather overviewHow to use our weather pages